STARLINK-32753, 62481

Orbit data source: Space-Track

STARLINK-32753, 62481 is a payload satellite owned by SpaceX/Seattle (US) in LEO that was launched on Tue, 31 Dec 2024 UTC via an FALCON 9 launch vehicle from the Air Force Eastern Test Range (AFETR). Payloads include a variety of satellites, spacecraft, and rockets equipped with specific instruments for various scientific and technological missions. These include communications satellites like Starlink; space stations such as the ISS; scientific satellites like the Hubble; Earth observation satellites from companies like Planet Labs, Umbra, and HawkEye 360; GPS; miniature CubeSats for education and research; and military/defense satellites.

Loading next visibility...
STARLINK-32753 details
Identifier
62481, 2024-254V
Orbit
LEO
Last TLE update5 hours ago
Origin
Flag of USSpaceX/Seattle (US)
ManufacturerSpaceX/Seattle
MissionOperational spacecraft
Bus & MotorSTARLINK V2M, Unknown motor
Mass730 kg wet, ~700 kg dry
Launch date (UTC)
2024-12-31 (4 weeks ago)
Launch vehicle
FALCON 9
Launch site
Air Force Eastern Test Range (AFETR)
Object type
Payload
Rocket body
Debris
Shape & HBRUnknown
Radar Cross SectionLarge (>1 m²)

Expand to show TLE details & history

TLE from 5 hours ago
0 STARLINK-32753
1 62481U 24254V   25025.58334491 -.01612460  00000-0 -28489-1 0  9993
2 62481  42.9991 166.1392 0001359 273.6854 339.6178 15.52538282  5225
Epoch: 2025-01-25T14:00Z
Definitive object data (Epoch: 2025-01-25T14:00:01Z)
Latitude-40.95093°
Longitude78.73855°
Altitude420.874 km
Speed7.66 km/s
True Right ascension03h 35m 29s
True Declination-40° 46' 20"
Sunlit
Object was in daylight at TLE epoch
Visualization TLE readout
Latitude35.3951°
Longitude-121.03508°
Altitude413.891 km
Speed7.667 km/s
Apparent Right ascension11h 41m 30s
Apparent Declination-1° 09' 31"
Sunlit
Object is in daylight
Visualization observer readout
Local Sidereal Time20:41:16
Azimuth301.737° NW
Elevation-33.688°
Doppler factor1
Orbital elements
Apogee altitude412.207 km
Perigee altitude410.362 km
Semi-major axis6,789.421 km
Eccentricity0.0001359
Inclination42.9991°
RAAN166.1392°
Arg. of periapsis273.6854°
True anomaly339.61238°
Mean anomaly339.6178°
Eccentric anomaly339.61509°
Mean motion3.87966 °/min
BSTAR-0.028489
Orbital period92.79 mins
Loading maneuver chart data...
Loading historical data...
Loading historical data...
Loading historical data...
Loading historical data...
Loading historical data...
Loading historical data...
Loading historical data...

STARLINK-32753 Visibility forecast

Observer location: undefined°, undefined

Span
Click to sort rows by Start time (UTC) header in descending order
Start Az.
Max El. time (UTC)
Max El. Az.
Max El.
End time (UTC)
End Az.
4 mins2025-01-26 12:19:21.183Z189.363° SSW2025-01-26 12:20:21.183Z158.557° S26.775°2025-01-26 12:23:21.183Z88.078° E
4 mins2025-01-26 13:56:21.183Z268.809° W2025-01-26 13:58:21.183Z33.858° NE40.787°2025-01-26 14:00:21.183Z67.641° E
4 mins2025-01-26 15:34:21.183Z304.901° NW2025-01-26 15:35:21.183Z341.129° N35.905°2025-01-26 15:38:21.183Z77.09° E
5 mins2025-01-26 17:11:21.183Z284.017° WNW2025-01-26 17:13:21.183Z201.059° SSW44.177°2025-01-26 17:16:21.183Z115.793° SE
|